Weather History for Malaga, Spain

Change the Weather History Date:

Wednesday, January 9, 2013

  Actual Average Record
Temperature  
Mean Temperature 57 °F -  
Max Temperature 63 °F 60 °F 65 °F (2014)
Min Temperature 51 °F 44 °F 32 °F (2000)
Degree Days  
Heating Degree Days 8    
Growing Degree Days 7 (Base 50)    
Moisture  
Dew Point 41 °F    
Average Humidity 55    
Maximum Humidity 63    
Minimum Humidity 40    
Precipitation  
Precipitation 0.00 in 0.11 in - ()
Sea Level Pressure  
Sea Level Pressure 30.31 in    
Wind  
Wind Speed 16 mph ()    
Max Wind Speed 24 mph    
Max Gust Speed 39 mph    
Visibility 7.3 miles    
Events      
Averages and records for this station are not official NWS values.
T = Trace of Precipitation, MM = Missing Value Source: Averaged Metar Reports

Daily Weather History Graph

Daily Weather History Graph

Search for Another Location

Airport:

Trip Planner

Search our weather history database for the weather conditions in past years. The results will help you decide how hot, cold, wet, or windy it might be!

Date:

Astronomy

Jan. 09, 2013 Rise Set
Actual Time 8:30 AM CET 6:19 PM CET
Civil Twilight 8:02 AM CET 6:48 PM CET
Nautical Twilight 7:30 AM CET 7:20 PM CET
Astronomical Twilight 6:58 AM CET 7:51 PM CET
Moon 5:54 AM CET (1/9) 4:06 PM CET (1/9)
Length of Visible Light 10h 46m
Length of Day
9h 49m
Waning Crescent, 8% of the Moon is Illuminated
Jan 9
Waning Crescent
Jan 11
New
Jan 19
First Quarter
Jan 27
Full
Feb 3
Last Quarter

Hourly Weather History & Observations

Time (CET) Temp. Dew Point Humidity Pressure Visibility Wind Dir Wind Speed Gust Speed Precip Events Conditions
12:00 AM 53.6 °F 37.4 °F 54% 30.36 in - West 16.1 mph - N/A   Clear
12:30 AM 53.6 °F 37.4 °F 54% 30.36 in - West 15.0 mph - N/A   Clear
1:00 AM 54 °F 37 °F 40% 30.36 in 12 mi West 15.0 mph - -  
1:00 AM 53.6 °F 37.4 °F 54% 30.36 in - West 15.0 mph - N/A   Clear
1:30 AM 53.6 °F 37.4 °F 54% 30.33 in - West 16.1 mph - N/A   Clear
2:00 AM 53.6 °F 37.4 °F 54% 30.33 in - West 17.3 mph - N/A   Clear
2:30 AM 53.6 °F 37.4 °F 54% 30.33 in - West 18.4 mph - N/A   Clear
3:00 AM 51.8 °F 37.4 °F 58% 30.33 in - West 19.6 mph - N/A   Clear
3:30 AM 53.6 °F 37.4 °F 54% 30.33 in 6.2 mi West 18.4 mph 29.9 mph N/A   Partly Cloudy
4:00 AM 51.8 °F 35.6 °F 54% 30.30 in 6.2 mi West 16.1 mph - N/A   Partly Cloudy
4:30 AM 51.8 °F 35.6 °F 54% 30.30 in 6.2 mi West 17.3 mph - N/A   Partly Cloudy
5:00 AM 51.8 °F 35.6 °F 54% 30.30 in 6.2 mi West 17.3 mph - N/A   Partly Cloudy
5:30 AM 51.8 °F 35.6 °F 54% 30.30 in 6.2 mi West 18.4 mph - N/A   Partly Cloudy
6:00 AM 51.8 °F 35.6 °F 54% 30.30 in 6.2 mi West 17.3 mph - N/A   Partly Cloudy
6:30 AM 51.8 °F 35.6 °F 54% 30.30 in 6.2 mi West 18.4 mph - N/A   Partly Cloudy
7:00 AM 52 °F 36 °F 44% 30.31 in 12 mi West 17.3 mph - -   Scattered Clouds
7:00 AM 51.8 °F 37.4 °F 58% 30.30 in 6.2 mi West 17.3 mph - N/A   Partly Cloudy
7:30 AM 51.8 °F 37.4 °F 58% 30.30 in 6.2 mi West 18.4 mph - N/A   Partly Cloudy
8:00 AM 51.8 °F 37.4 °F 58% 30.30 in 6.2 mi West 17.3 mph - N/A   Partly Cloudy
8:30 AM 51.8 °F 37.4 °F 58% 30.30 in - West 16.1 mph - N/A   Clear
9:00 AM 51.8 °F 37.4 °F 58% 30.30 in - West 16.1 mph - N/A   Clear
9:30 AM 53.6 °F 39.2 °F 58% 30.30 in - West 18.4 mph - N/A   Clear
10:00 AM 53.6 °F 39.2 °F 58% 30.33 in - West 16.1 mph - N/A   Clear
10:30 AM 55.4 °F 39.2 °F 54% 30.33 in - West 20.7 mph - N/A   Clear
11:00 AM 55.4 °F 41.0 °F 58% 30.33 in - West 18.4 mph - N/A   Clear
11:30 AM 57.2 °F 41.0 °F 55% 30.33 in - West 19.6 mph - N/A   Clear
12:00 PM 59.0 °F 42.8 °F 55% 30.33 in - West 20.7 mph - N/A   Clear
12:30 PM 59.0 °F 42.8 °F 55% 30.33 in - West 21.9 mph - N/A   Clear
1:00 PM 63 °F 46 °F 43% 30.32 in 19 mi West 20.7 mph - -   Clear
1:00 PM 60.8 °F 42.8 °F 52% 30.30 in - WNW 20.7 mph - N/A   Clear
1:30 PM 60.8 °F 42.8 °F 52% 30.30 in - WNW 21.9 mph - N/A   Clear
2:00 PM 62.6 °F 42.8 °F 48% 30.27 in - WNW 20.7 mph - N/A   Clear
2:30 PM 62.6 °F 44.6 °F 52% 30.27 in - West 18.4 mph - N/A   Clear
3:00 PM 62.6 °F 44.6 °F 52% 30.27 in 6.2 mi WNW 19.6 mph - N/A   Partly Cloudy
3:30 PM 62.6 °F 44.6 °F 52% 30.27 in 6.2 mi WNW 18.4 mph 32.2 mph N/A   Partly Cloudy
4:00 PM 62.6 °F 44.6 °F 52% 30.27 in 6.2 mi WNW 24.2 mph - N/A   Partly Cloudy
4:30 PM 62.6 °F 44.6 °F 52% 30.27 in 6.2 mi WNW 23.0 mph 39.1 mph N/A   Partly Cloudy
5:00 PM 62.6 °F 44.6 °F 52% 30.27 in 6.2 mi WNW 18.4 mph - N/A   Partly Cloudy
5:30 PM 60.8 °F 44.6 °F 55% 30.27 in 6.2 mi WNW 18.4 mph - N/A   Partly Cloudy
6:00 PM 60.8 °F 44.6 °F 55% 30.30 in 6.2 mi WNW 13.8 mph 26.5 mph N/A   Partly Cloudy
6:30 PM 59.0 °F 44.6 °F 59% 30.30 in 6.2 mi WNW 13.8 mph - N/A   Partly Cloudy
7:00 PM 59.0 °F 44.6 °F 59% 30.30 in 6.2 mi West 18.4 mph - N/A   Partly Cloudy
7:30 PM 59.0 °F 44.6 °F 59% 30.30 in - WNW 23.0 mph - N/A   Clear
8:00 PM 59.0 °F 44.6 °F 59% 30.30 in - WNW 24.2 mph - N/A   Clear
8:30 PM 59.0 °F 44.6 °F 59% 30.30 in - West 24.2 mph - N/A   Clear
9:00 PM 59.0 °F 44.6 °F 59% 30.30 in - West 21.9 mph - N/A   Clear
9:30 PM 59.0 °F 44.6 °F 59% 30.30 in - WNW 19.6 mph 33.4 mph N/A   Clear
10:00 PM 59.0 °F 44.6 °F 59% 30.30 in - West 16.1 mph - N/A   Clear
10:30 PM 57.2 °F 44.6 °F 63% 30.30 in - West 18.4 mph - N/A   Clear
11:00 PM 57.2 °F 44.6 °F 63% 30.30 in - West 20.7 mph - N/A   Clear
11:30 PM 57.2 °F 44.6 °F 63% 30.30 in - WNW 19.6 mph - N/A   Clear